THOR ABLESTAR DEB, 320

Orbit data source: Space-Track

THOR ABLESTAR DEB, 320 is space debris in LEO originally from a launch on Thu, 29 Jun 1961 UTC launched from the Air Force Eastern Test Range (AFETR). Debris objects in space refer to the collection of defunct objects orbiting the Earth. Examples of debris include non-operational satellites, rocket bodies, and fragments generated from explosions, collisions, or faulty payload assembly.

Loading next visibility...
Identifier
320, 1961-015CW
Orbit
LEO
Country
Flag of USUS
Related business
Manufacturer
Unknown
Mission
Spacecraft
Bus & Motor
Unknown
Mass
Unknown
Launch date (UTC)
1961-06-29 (65 years ago)
Launch vehicle
Unknown
Launch site
Air Force Eastern Test Range (AFETR)
Object type
Payload
Rocket body
Debris
Shape & HBR
Unknown shape, 0.2 m
Radar Cross Section
Medium (>0.1 m² and <1 m²)

Expand to show TLE details & history
Last TLE update: 13 hours ago

TLE from 13 hours ago
0 THOR ABLESTAR DEB
1 00320U 61015CW  26095.12754147  .00000555  00000-0  22950-3 0  9997
2 00320  66.9046 235.1994 0126643  80.0942 281.4426 14.29535855357915
Epoch: 2026-04-05T03:03Z
TLE epoch observation values (Epoch: 2026-04-05T03:03:39.583Z)
Latitude
-0.00004°
Longitude
-4.15296°
Altitude
778.495 km
Speed
7.474 km/s
True Right ascension
15h 40m 47s
True Declination
0° 00' 00"
Sunlit
Object was in full shadow at epoch
Visualization orbit readout
Latitude
Unknown
Longitude
Unknown
Altitude
Unknown
Speed
Unknown
Apparent Right ascension
Unknown
Apparent Declination
Unknown
Sunlit
N/A
Visualization observer readout
Local Sidereal Time
22:28:43
Azimuth
Unknown
Elevation
Unknown
Doppler factor
Unknown
Orbital elements
Apogee altitude
882.434 km
Perigee altitude
700.834 km
Semi-major axis
7,169.771 km
Eccentricity
0.01266
Inclination
66.9046°
RAAN
235.1994°
Arg. of periapsis
80.0942°
True anomaly
280.01589°
Mean anomaly
281.4426°
Eccentric anomaly
280.72968°
Mean motion
3.57508 °/min
Orbital period
100.7 mins
BSTAR
0.0002295
Loading maneuver chart data...
Computing Atmospheric mass density...
Loading historical data...
Loading historical data...
Loading historical data...
Loading historical data...
Loading historical data...
Loading historical data...
Loading historical data...

Documentation

Showing up to 5 results
|